www.pogodaiklimat.ru
ПОГОДА в Нарве

Архив погоды в Нарве (Эстония)

Время
(UTC), дата
22 21.09
23 21.09
00 22.09
01 22.09
02 22.09
03 22.09
04 22.09
05 22.09
06 22.09
07 22.09
08 22.09
09 22.09
10 22.09
11 22.09
12 22.09
13 22.09
14 22.09
15 22.09
16 22.09
17 22.09
18 22.09
19 22.09
20 22.09
21 22.09
22 22.09
23 22.09
00 23.09
01 23.09
02 23.09
03 23.09
04 23.09
05 23.09
06 23.09
07 23.09
08 23.09
09 23.09
10 23.09
11 23.09
12 23.09
13 23.09
14 23.09
15 23.09
16 23.09
17 23.09
18 23.09
19 23.09
20 23.09
21 23.09
22 23.09
23 23.09
00 24.09
01 24.09
02 24.09
03 24.09
04 24.09
05 24.09
06 24.09
07 24.09
08 24.09
09 24.09
10 24.09
11 24.09
12 24.09
13 24.09
14 24.09
15 24.09
16 24.09
17 24.09
18 24.09
19 24.09
20 24.09
21 24.09
22 24.09
23 24.09
00 25.09
01 25.09
02 25.09
03 25.09
04 25.09
05 25.09
06 25.09
07 25.09
08 25.09
09 25.09
10 25.09
11 25.09
12 25.09
13 25.09
14 25.09
15 25.09
16 25.09
17 25.09
18 25.09
19 25.09
20 25.09
21 25.09
22 25.09
23 25.09
00 26.09
01 26.09
02 26.09
03 26.09
04 26.09
05 26.09
06 26.09
07 26.09
08 26.09
09 26.09
10 26.09
11 26.09
12 26.09
13 26.09
14 26.09
15 26.09
16 26.09
17 26.09
18 26.09
19 26.09
20 26.09
21 26.09
22 26.09
23 26.09
00 27.09
01 27.09
02 27.09
03 27.09
04 27.09
05 27.09
06 27.09
07 27.09
08 27.09
09 27.09
10 27.09
11 27.09
12 27.09
13 27.09
14 27.09
15 27.09
16 27.09
17 27.09
18 27.09
19 27.09
20 27.09
21 27.09
22 27.09
23 27.09
00 28.09
01 28.09
02 28.09
03 28.09
04 28.09
05 28.09
06 28.09
07 28.09
08 28.09
09 28.09
10 28.09
11 28.09
12 28.09
13 28.09
14 28.09
15 28.09
16 28.09
17 28.09
18 28.09
19 28.09
20 28.09
21 28.09
Ветер
(напр.,м/с)
Видим. Явления Облачность Т
(С)
Тd
(С)
f
(%)
Тe
(С)
Тes
(С)
Комфортность P
(гПа)
Po
(гПа)
Тmin
(С)
Tmax
(С)
R
(мм)
R24
(мм)
S
(см)
С 2-2
{2}
20 км н/о +7.3 +6.9 97 +5 +5 тепло 1023.2 1019.7
С 2-2
{3}
20 км н/о +7.4 +6.9 97 +5 +5 тепло 1023.2 1019.7
С 2-3
{3}
20 км 9/9 1500 м +7.1 +6.6 97 +5 +5 по сезону 1023.0 1019.5
СВ 1-2
{3}
1200 м н/о +4.8 +4.7 99 +3 +3 по сезону 1022.8 1019.2
С 1-2
{2}
20 км н/о +6.7 +6.5 99 +5 +5 по сезону 1022.7 1019.2
СВ 2 20 км 9/6 1000 м +7.2 +6.9 98 +5 +5 по сезону 1022.6 1019.1 +3.7 +11.9
СВ 2-3
{3}
20 км н/о +7.5 +7.1 97 +5 +5 по сезону 1022.6 1019.1
С 2-2
{4}
20 км н/о +8.3 +7.8 97 +6 +6 тепло 1022.7 1019.2
СВ 2-4
{4}
20 км 9/9 1000 м +9.1 +8.3 95 +7 +7 по сезону 1022.7 1019.2 +3.7 +9.1
СВ 3-4
{4}
20 км н/о +10.2 +8.0 86 +8 +8 по сезону 1022.6 1019.1
В 2-4
{5}
20 км н/о +11.7 +7.4 75 +11 +14 тепло 1022.6 1019.2 +3.7 +12.1
В 2 20 км ясно +13.7 +5.8 59 +13 +18 тепло 1022.4 1018.9 +4.8 +14.0
СВ 3-6
{6}
20 км н/о +13.7 +2.7 47 +13 +13 тепло 1022.1 1018.6
С 3-5
{6}
20 км н/о +12.6 +5.2 61 +11 +11 тепло 1021.8 1018.3
СЗ 2-4
{4}
20 км {ливн. дождь} 9/6 1500 м +12.9 +4.8 58 +12 +12 по сезону 1021.5 1018.1
СВ 4-5
{6}
20 км н/о +12.6 +6.2 65 +11 +11 по сезону 1021.1 1017.7 +4.8 +14.9
С 2-3
{5}
20 км н/о +12.4 +6.6 68 +12 +12 тепло 1020.8 1017.4
С 2 20 км ясно +12.1 +5.6 64 +11 +12 по сезону 1020.7 1017.3 +7.1 +14.9
С 1-2
{3}
20 км н/о +9.5 +5.8 78 +9 +9 по сезону 1020.9 1017.5
СВ 1-1
{2}
20 км н/о +4.9 +4.2 95 +3 +3 прохладно 1021.1 1017.5
штиль 0-1
{1}
13 км 4/4 +4.1 +4.1 100 +3 +3 холодно 1020.9 1017.3 +3.6 +14.9
штиль 0-1
{1}
400 м н/о +3.9 +3.8 99 +3 +3 прохладно 1020.7 1017.2
З 1-1
{1}
200 м н/о +2.4 +2.3 99 +1 +1 прохладно 1020.7 1017.2
З 1 300 м туман 4/4 +2.5 +2.5 100 +1 +1 холодно 1020.6 1017.0 +2.1 +14.9
штиль 0-1
{1}
8000 м н/о +3.2 +3.2 100 +2 +2 прохладно 1020.3 1016.8
1-1
{1}
14 км н/о +3.9 +3.7 99 +2 +2 по сезону 1020.1 1016.5
ЮВ 1-1
{1}
15 км 10/0 +3.5 +3.3 99 +2 +2 прохладно 1019.8 1016.3
штиль 0-1
{1}
12 км н/о +4.4 +4.3 99 +3 +3 по сезону 1019.5 1015.9
СВ 1-1
{1}
12 км н/о +4.4 +4.1 98 +3 +3 по сезону 1019.5 1016.0
З 1 4200 м дымка 9/0 +3.9 +3.9 100 +2 +2 прохладно 1019.3 1015.8
З 1-2
{2}
8000 м н/о +4.6 +4.6 100 +3 +3 по сезону 1019.2 1015.6
штиль 0-1
{1}
15 км н/о +5.8 +5.6 99 +5 +5 по сезону 1019.1 1015.6
СВ 1-2
{2}
17 км 6/0 +8.0 +7.1 94 +7 +7 по сезону 1019.2 1015.7 +1.8 +8.1
В 1-3
{3}
20 км н/о +10.9 +8.2 83 +11 +11 тепло 1019.2 1015.8
СВ 1-2
{3}
20 км н/о +10.6 +7.8 83 +10 +12 тепло 1019.1 1015.6 +1.8 +11.0
СВ 2 20 км 1/1 300 м +12.1 +7.4 73 +11 +15 по сезону 1018.8 1015.4 +1.8 +12.4
СВ 1-3
{4}
20 км н/о +12.2 +6.9 70 +12 +12 тепло 1018.6 1015.2
С 1-2
{3}
20 км н/о +11.7 +7.7 76 +12 +12 тепло 1018.4 1014.9
СЗ 2-3
{4}
20 км 9/6 1500 м +12.4 +7.2 71 +12 +12 по сезону 1018.2 1014.8
СЗ 3-4
{5}
20 км н/о +11.5 +7.8 78 +10 +10 по сезону 1018.2 1014.7
С 3-4
{4}
20 км н/о +11.8 +6.7 71 +10 +10 по сезону 1018.0 1014.6
СВ 2 20 км 9/6 1000 м +12.3 +7.3 72 +11 +12 по сезону 1017.9 1014.5 +4.0 +13.3
С 1-2
{3}
20 км н/о +10.2 +7.9 86 +10 +10 по сезону 1018.0 1014.5
СЗ 1-1
{2}
20 км н/о +7.0 +6.4 96 +6 +6 по сезону 1017.9 1014.5
СВ 1-2
{2}
20 км ясно +6.6 +6.1 97 +5 +5 прохладно 1017.8 1014.3 +5.5 +13.3
СВ 1-2
{2}
19 км н/о +5.7 +5.7 100 +4 +4 по сезону 1018.0 1014.5
В 1-1
{2}
200 м н/о +3.7 +3.7 100 +2 +2 по сезону 1018.0 1014.5
штиль 0 200 м туман ясно +3.8 +3.8 100 +3 +3 прохладно 1017.9 1014.3 +2.6 +13.3
штиль 0
{1}
100 м н/о +1.8 +1.8 100 0 0 холодно 1017.9 1014.3
В 1-2
{2}
300 м н/о +0.9 +0.9 100 -1 -1 прохладно 1017.9 1014.3
СВ 1-1
{2}
300 м сильная пыльная буря {метель} ясно 0.0 0.0 100 -2 -2 очень
холодно
1017.8 1014.2
штиль 0-1
{1}
200 м н/о +0.9 +0.9 100 -1 -1 холодно 1017.5 1013.9
С 1-1
{1}
200 м н/о -0.5 -0.6 99 -3 -3 прохладно 1017.2 1013.7
штиль 0 300 м туман ясно -0.4 -0.4 100 -2 -2 очень
холодно
1016.9 1013.4 -0.6 +12.3
штиль 0-1
{1}
200 м н/о -1.0 -1.1 99 -2 -2 холодно 1016.9 1013.3
СЗ 1-1
{1}
600 м н/о -0.3 -0.3 100 -3 -3 прохладно 1016.7 1013.2
штиль 0-1
{1}
1200 м в посл. час морось {метель} 1/1 <50 м +5.5 +5.5 100 +4 +4 прохладно 1016.4 1012.9 -1.4 +7.2
С 1-2
{2}
20 км н/о +9.2 +8.2 93 +8 +8 тепло 1016.2 1012.7
СВ 3-4
{5}
20 км н/о +10.7 +8.2 85 +9 +10 тепло 1016.0 1012.5 -1.4 +10.9
СВ 4 20 км 5/5 300 м +11.6 +6.9 73 +10 +11 по сезону 1015.6 1012.2 -1.4 +12.2
С 4-6
{7}
20 км н/о +11.5 +6.2 70 +9 +9 по сезону 1015.2 1011.8
СВ 4-7
{7}
20 км н/о +12.3 +5.1 61 +11 +11 тепло 1014.8 1011.4
С 4-7
{7}
20 км 1/1 600 м +13.1 +5.2 59 +12 +12 по сезону 1014.5 1011.1
С 5-7
{9}
20 км н/о +12.2 +4.7 60 +10 +10 по сезону 1014.4 1010.9
С 5-9
{9}
20 км н/о +11.6 +7.0 73 +9 +9 по сезону 1014.1 1010.7
С 4
{9}
20 км 10/10 1000 м +11.2 +7.0 75 +9 +9 по сезону 1013.7 1010.3 -1.4 +13.9
С 3-6
{7}
20 км н/о +10.6 +6.1 74 +9 +9 по сезону 1013.8 1010.3
С 4-5
{6}
20 км н/о +10.1 +5.7 74 +8 +8 по сезону 1013.5 1010.1
С 3-4
{5}
20 км 1/1 1000 м +8.4 +5.0 79 +6 +6 по сезону 1013.3 1009.8 +5.5 +13.9
С 3-5
{6}
20 км н/о +8.9 +3.8 70 +7 +7 по сезону 1013.0 1009.5
С 3-4
{5}
20 км н/о +8.4 +3.9 73 +6 +6 по сезону 1012.5 1009.0
С 3 20 км 1/1 1000 м +7.4 +3.7 77 +5 +5 по сезону 1012.2 1008.7 +7.3 +13.9
С 3-4
{6}
20 км н/о +7.3 +3.7 78 +5 +5 по сезону 1011.9 1008.4
С 3-5
{5}
20 км н/о +7.4 +3.8 78 +5 +5 по сезону 1011.7 1008.2
С 4-5
{6}
20 км ясно +7.4 +4.4 81 +4 +4 по сезону 1011.3 1007.8
С 4-5
{5}
20 км н/о +7.4 +5.0 85 +4 +4 по сезону 1011.0 1007.6
С 4-6
{7}
20 км н/о +7.6 +5.2 85 +4 +4 по сезону 1010.8 1007.3
С 5 20 км 1/1 +7.6 +4.7 82 +4 +4 прохладно 1010.5 1007.0 +7.0 +11.6
С 4-7
{8}
20 км н/о +8.1 +4.9 80 +5 +5 по сезону 1010.1 1006.7
С 5-9
{9}
20 км н/о +8.2 +4.3 76 +5 +5 по сезону 1009.8 1006.4
С 5-8
{11}
20 км 10/10 300 м +8.2 +4.6 78 +5 +5 по сезону 1009.5 1006.0 +7.0 +9.2
С 4-8
{9}
20 км н/о +8.4 +4.4 76 +5 +5 по сезону 1009.5 1006.1
С 3-6
{11}
20 км н/о +8.6 +4.7 76 +6 +6 тепло 1009.3 1005.8 +7.0 +9.1
С 4
{9}
20 км 10/10 300 м +8.5 +5.0 79 +5 +5 прохладно 1009.1 1005.7 +7.0 +8.7
СЗ 4-6
{6}
20 км н/о +8.7 +5.3 79 +6 +6 по сезону 1009.1 1005.6
С 3-6
{7}
20 км н/о +9.0 +6.0 81 +7 +7 по сезону 1008.8 1005.4
С 3-5
{6}
20 км ливневой дождь 10/10 300 м +8.4 +6.7 89 +6 +6 холодно 1008.8 1005.3
С 3-5
{5}
11 км н/о +8.0 +7.4 96 +5 +5 холодно 1009.0 1005.5 1
СЗ 2-3
{5}
9000 м н/о +7.9 +7.4 97 +6 +6 по сезону 1008.9 1005.4 0.5
СЗ 2 11 км слаб. дождь 6/6 300 м +7.6 +7.3 98 +5 +5 прохладно 1008.7 1005.3 +7.4 +9.0 3
СЗ 2-3
{3}
19 км н/о +7.5 +7.2 98 +5 +5 прохладно 1008.6 1005.2 0.2
С 1-2
{2}
15 км н/о +7.3 +7.1 99 +6 +6 по сезону 1008.4 1005.0 0.1
СЗ 1-1
{2}
20 км в посл. час дождь со снегом {ливн. дождь} 10/5 300 м +7.2 +7.0 99 +6 +6 по сезону 1008.3 1004.9 +7.2 +9.0 0.1
З 1-1
{1}
1400 м н/о +6.3 +6.3 100 +5 +5 по сезону 1008.2 1004.8
З 1-1
{1}
3500 м н/о +6.5 +6.5 100 +5 +5 по сезону 1008.1 1004.6
ЮЗ 1 2400 м в посл. час дождь 10/10 600 м +6.2 +6.1 99 +5 +5 по сезону 1008.0 1004.6 +6.2 +9.0
З 1-1
{1}
6000 м н/о +6.3 +6.3 100 +5 +5 по сезону 1008.0 1004.5
штиль 0
{1}
8000 м н/о +6.6 +6.4 99 +5 +5 по сезону 1007.9 1004.5
ЮЗ 1-1
{1}
9000 м дымка 10/10 600 м +6.2 +6.2 100 +5 +5 по сезону 1007.9 1004.4
ЮЗ 1-1
{1}
15 км н/о +6.4 +6.4 100 +5 +5 по сезону 1007.9 1004.4
ЮВ 1-1
{1}
12 км н/о +6.4 +6.4 100 +5 +5 тепло 1007.8 1004.4
З 1 8000 м слаб. дождь 10/10 100 м +6.8 +6.8 100 +6 +6 по сезону 1007.8 1004.4 +5.8 +7.6 0.1
Ю 1-1
{1}
15 км н/о +6.8 +6.7 99 +6 +6 по сезону 1007.9 1004.5
штиль 0-1
{2}
1000 м н/о +6.8 +6.6 99 +6 +6 тепло 1008.1 1004.6
Ю 1-2
{2}
14 км в посл. час морось 9/5 <50 м +7.4 +7.1 98 +6 +6 по сезону 1008.3 1004.8 +5.8 +7.6
Ю 2-3
{4}
20 км н/о +8.6 +6.9 89 +7 +7 тепло 1008.6 1005.1
ЮВ 3-4
{4}
20 км н/о +8.5 +7.0 90 +6 +6 тепло 1008.9 1005.4 +5.8 +9.2
ЮВ 4 20 км 9/9 100 м +9.7 +7.4 86 +7 +7 по сезону 1009.1 1005.6 +5.8 +9.7
Ю 3-5
{5}
20 км н/о +9.8 +6.6 80 +8 +8 по сезону 1009.2 1005.8
ЮВ 4-6
{6}
20 км н/о +10.0 +6.8 80 +7 +7 тепло 1009.4 1006.0
Ю 3-4
{5}
20 км 9/9 300 м +10.3 +6.8 79 +8 +8 по сезону 1009.4 1005.9
ЮВ 3-6
{6}
20 км н/о +10.4 +6.9 79 +8 +8 по сезону 1009.5 1006.1
ЮВ 4-5
{5}
20 км н/о +11.2 +7.2 76 +9 +9 тепло 1009.4 1006.0
ЮВ 3 20 км ясно +10.0 +6.9 81 +8 +8 по сезону 1009.6 1006.2 +6.6 +11.9
ЮВ 2-2
{4}
20 км н/о +7.9 +6.8 93 +6 +6 по сезону 1009.8 1006.4
ЮВ 2-2
{2}
1600 м н/о +4.4 +4.3 99 +1 +1 прохладно 1010.1 1006.6
ЮВ 2-2
{2}
18 км ясно +5.7 +5.6 99 +3 +3 прохладно 1010.4 1006.9 +4.2 +11.9
ЮВ 2-2
{2}
2100 м н/о +6.0 +6.0 100 +3 +3 по сезону 1010.5 1007.0
ЮВ 1-2
{2}
800 м н/о +4.8 +4.8 100 +3 +3 по сезону 1010.6 1007.1
ЮВ 2 11 км в посл. час туман ясно +3.0 +2.9 99 -0 -0 холодно 1010.9 1007.4 +2.9 +11.9
ЮВ 2-2
{2}
1100 м н/о +3.6 +3.5 99 0 0 прохладно 1010.8 1007.3
ЮВ 2-3
{3}
6000 м н/о +3.7 +3.7 100 +1 +1 по сезону 1010.8 1007.3
ЮВ 2-3
{3}
20 км в посл. час морось ясно +3.4 +3.4 100 0 0 прохладно 1010.9 1007.4
ЮВ 2-2
{4}
600 м н/о +2.4 +2.4 100 -1 -1 по сезону 1010.8 1007.3
В 2-2
{2}
7000 м н/о +2.2 +2.2 100 -1 -1 по сезону 1010.8 1007.3 +2.1 +11.5
В 1 7000 м в посл. час туман ясно +1.3 +1.3 100 -1 -1 холодно 1010.9 1007.4 +0.6 +10.0
В 1-2
{2}
300 м н/о +1.5 +1.5 100 -1 -1 прохладно 1011.0 1007.5
ЮВ 2-3
{3}
300 м н/о +3.9 +3.9 100 +1 +1 по сезону 1010.9 1007.4
В 3-3
{4}
8000 м в посл. час морось {метель} 6/6 <50 м +6.1 +6.1 100 +3 +3 по сезону 1011.1 1007.7 +0.5 +6.4
ЮВ 3-4
{4}
20 км н/о +8.8 +7.5 92 +6 +6 тепло 1011.2 1007.7
ЮВ 4-6
{6}
20 км н/о +10.7 +6.9 77 +8 +10 тепло 1011.3 1007.9 +0.5 +10.7
ЮВ 5 20 км ясно +11.4 +5.6 67 +9 +11 по сезону 1011.3 1007.9 +0.5 +11.9
ЮВ 4-7
{7}
20 км н/о +12.7 +5.4 61 +11 +11 тепло 1011.2 1007.8
ЮВ 5-7
{8}
20 км н/о +13.2 +4.5 56 +11 +11 тепло 1011.0 1007.6
В 5-6
{7}
20 км 4/4 1000 м +12.7 +5.1 60 +11 +11 тепло 1010.9 1007.5
В 3-5
{6}
20 км н/о +12.2 +3.6 56 +11 +11 тепло 1010.8 1007.3
В 3-5
{6}
20 км н/о +12.1 +4.0 58 +11 +11 тепло 1010.8 1007.4
В 3 20 км 4/4 1000 м +10.9 +5.7 70 +9 +9 по сезону 1010.8 1007.4 +0.5 +14.5
В 2-4
{6}
20 км н/о +9.2 +5.3 77 +8 +8 тепло 1011.0 1007.5
В 2-3
{4}
20 км н/о +8.4 +5.9 84 +7 +7 тепло 1011.2 1007.8
В 2-3
{5}
20 км 10/10 1000 м +8.7 +6.3 85 +7 +7 по сезону 1011.4 1008.0 +5.9 +14.5
СВ 1-2
{3}
20 км н/о +7.7 +6.1 90 +7 +7 тепло 1011.4 1007.9
СВ 1-2
{2}
20 км н/о +6.6 +5.7 94 +5 +5 тепло 1011.2 1007.8
В 1 20 км 10/10 1000 м +6.9 +6.0 94 +6 +6 по сезону 1011.1 1007.6 +5.1 +14.5
В 1-3
{4}
20 км н/о +7.6 +6.7 94 +7 +7 тепло 1011.1 1007.6
СВ 1-2
{3}
20 км н/о +7.0 +6.3 95 +6 +6 тепло 1011.2 1007.7
В 2-3
{3}
20 км 1/1 1500 м +6.5 +5.9 96 +4 +4 по сезону 1010.8 1007.4
В 2-2
{3}
20 км н/о +5.6 +5.2 97 +3 +3 по сезону 1010.7 1007.2
В 1-2
{3}
13 км н/о +5.1 +4.9 99 +4 +4 тепло 1010.7 1007.2
В 2 6000 м дымка ясно +4.1 +4.0 99 +1 +1 прохладно 1010.5 1007.0 +4.0 +10.9
В 2-3
{3}
400 м н/о +3.9 +3.8 99 +1 +1 по сезону 1010.4 1006.9
В 1-3
{3}
4600 м н/о +4.1 +4.0 99 +2 +2 тепло 1010.2 1006.7
В 2-3
{4}
200 м сильная пыльная буря {метель} н/о +4.1 +4.1 100 +1 +1 прохладно 1009.9 1006.4 +3.8 +8.7
В 2-4
{4}
500 м н/о +5.3 +5.3 100 +2 +2 по сезону 1009.6 1006.1
С 2-4
{4}
5000 м н/о +7.3 +7.1 99 +5 +5 тепло 1009.2 1005.8 +3.8 +7.8
В 4 20 км 9/0 +10.5 +6.6 77 +8 +10 по сезону 1008.6 1005.2 +3.8 +10.8
СВ 4-6
{8}
20 км н/о +12.4 +6.5 67 +11 +11 тепло 1008.2 1004.8
В 5-7
{9}
20 км н/о +11.6 +6.3 70 +9 +9 тепло 1007.9 1004.5
В 4-7
{8}
20 км 8/8 600 м +11.4 +5.2 66 +9 +9 по сезону 1007.6 1004.2
СВ 3-6
{7}
20 км н/о +10.4 +6.4 76 +8 +8 тепло 1007.1 1003.7
В 3-6
{8}
20 км н/о +10.1 +6.3 77 +8 +8 тепло 1007.0 1003.6
В 2 20 км 10/10 1000 м +9.6 +6.0 78 +8 +8 по сезону 1007.0 1003.6 +3.8 +13.0
СВ 1-2
{3}
20 км н/о +8.6 +6.1 84 +8 +8 тепло 1006.8 1003.3
СВ 3-5
{6}
20 км н/о +8.4 +6.7 89 +6 +6 тепло 1006.5 1003.1
СВ 2-4
{4}
20 км {ливн. дождь} 10/10 1000 м +8.1 +6.7 91 +6 +6 по сезону 1006.3 1002.9 +4.1 +13.0
СВ 2-3
{3}
20 км н/о +7.8 +6.7 93 +6 +6 тепло 1005.7 1002.2
СВ 2-2
{3}
20 км н/о +7.2 +6.5 95 +5 +5 тепло 1005.5 1002.0
СВ 3 20 км слаб. морось 9/4 1500 м +7.5 +6.7 95 +4 +4 по сезону 1005.3 1001.8 +7.2 +13.0
Местоположение метеостанции Нарва (Эстония): широта 59.37 долгота 28.12 высота над уровнем моря 30 м.
В архиве по умолчанию представлена погода в Нарве за последнюю неделю. Архивные данные за месяц целиком и за предыдущие месяцы, начиная с января 2011 года, Вы можете получить, выбрав интересующий диапазон дат из раскрывающегося списка и нажав кнопку "Найти!".
*Определитесь, кто Вы:
Внимание! Время в таблицах - всемирное. Для получения местного времени необходимо прибавить поправку, которая равна 2 ч.
Смотрите также архив погоды в соседних городах и на ближайших метеорологических станциях:
Партнеры нашего сайта:      
Пояснения к столбцам:
  • Ветер - указаны скорость ветра в м/с - средняя за 10 мин, порывы в срок и между сроками (в фигурных скобках) и направление, откуда дует ветер: С - северный,
  • СВ - северо-восточный, В - восточный, ЮВ - юго-восточный, Ю - южный, ЮЗ - юго-западный, З - западный, СЗ - северо-западный.
  • Видимость - горизонтальная дальность видимости в метрах или километрах. При видимости от 1 до 10 км при отсутствии осадков обычно наблюдается дымка, при ухудшении видимости до 1 км и менее - туман. В сухую погоду видимость может ухудшаться дымом, пылью или мглою.
  • Явления - указаны атмосферные явления, наблюдавшиеся в срок или в последний час перед сроком; фигурными скобками обозначены явления, наблюдавшиеся между сроками (за 1-3 часа до срока); квадратными скобками обозначены град или гололедные отложения с указанием их диаметра в мм.
  • Облачность - указаны через наклонную черту общая и нижняя облачность в баллах и высота нижней границы облаков в метрах; квадратными скобками обозначены формы облаков: Ci - перистые, Cs - перисто-слоистые, Cc - перисто-кучевые, Ac - высококучевые, As - высокослоистые, Sc - слоисто-кучевые, Ns - слоисто-дождевые, Cu - кучевые, Cb - кучево-дождевые. Подробнее классификацию облаков см. в Атласе облаков (PDF).
  • T - Температура воздуха - температура, измеренная на высоте 2 м над землей.
  • Td - Температура точки росы - температура, при понижении до которой содержащийся в воздухе водяной пар достигнет насыщения.
  • f - Относительная влажность воздуха - влажноcть воздуха, измеренная на высоте 2 м над землей.
  • Te - Эффективная температура - температура, которую ощущает одетый по сезону человек в тени. Характеристика душности погоды. При расчете учитывается влияние влажности воздуха и скорости ветра на теплоощущения человека.
  • Tes - Эффективная температура на солнце - температура, которую ощущает человек, с поправкой на солнечный нагрев. Характеристика знойности погоды. Зависит от высоты солнца над горизонтом, облачности и скорости ветра. Ночью, в пасмурную погоду, а также при ветре 12 м/с и более поправка равна нулю.
  • P - Атмосферное давление - приведенное к уровню моря атмосферное давление.
  • Po - Атмосферное давление - измеренное на уровне метеостанции атмосферное давление.
  • Tmin - Минимальная температура - минимум температуры воздуха на высоте 2 м над землей.
  • Tmax - Максимальная температура - максимум температуры воздуха на высоте 2 м над землей.
  • R - Количество осадков - Количество выпавших осадков за период времени, мм. При наведении курсора мыши на число - период времени, за который выпало указанное количество осадков.
  • R24 - Количество осадков - Количество выпавших осадков за 24 часа, мм.
  • S - Снежный покров - Высота снежного покрова, см. При наведении курсора мыши на число - состояние снежного покрова и степень покрытия местности в баллах.